When you browse on this site, cookies collect data to enhance your experience and personalize the content and advertising you see.
Visit our Privacy Policy to learn more. By continuing to use the site, you agree to this use of cookies and data.
  • In Romania
  • List of Countries
  • For 7 days
  • Water Temperature
  • Satellite Maps
  • Weather Map
  • Weather Widgets
  • user-avatar
    Login

    Hourly Weather Mayrhofen

    Today, 18 July, Thursday

    Time Temperature Precipitation Wind Pressure Humidity
    00:00 +8°C° 0.1 mm 1 mps 616 mmHg 93%
    01:00 +8°C° 0 mm 1 mps 616 mmHg 93%
    02:00 +8°C° 0.1 mm 1 mps 616 mmHg 93%
    03:00 +8°C° 0.1 mm 1 mps 615 mmHg 93%
    04:00 +8°C° 0.1 mm 1 mps 615 mmHg 92%
    05:00 +9°C° 0 mm 1 mps 616 mmHg 89%
    06:00 +11°C° 0 mm 1 mps 617 mmHg 86%
    07:00 +12°C° 0 mm 1 mps 618 mmHg 79%
    08:00 +14°C° 0.1 mm 1 mps 618 mmHg 70%
    09:00 +15°C° 0.1 mm 1 mps 619 mmHg 62%
    10:00 +16°C° 0.1 mm 1 mps 619 mmHg 54%
    11:00 +18°C° 0.4 mm 1 mps 619 mmHg 55%
    12:00 +17°C° 0.4 mm 2 mps 619 mmHg 56%
    13:00 +17°C° 0.4 mm 2 mps 619 mmHg 57%
    14:00 +17°C° 1 mm 2 mps 619 mmHg 60%
    15:00 +16°C° 1 mm 2 mps 619 mmHg 63%
    16:00 +16°C° 1 mm 1 mps 619 mmHg 65%
    17:00 +15°C° 0.7 mm 1 mps 619 mmHg 71%
    18:00 +14°C° 0.7 mm 1 mps 619 mmHg 78%
    19:00 +13°C° 0.7 mm 1 mps 618 mmHg 84%
    20:00 +11°C° 0.1 mm 1 mps 618 mmHg 86%
    21:00 +10°C° 0.1 mm 1 mps 618 mmHg 89%
    22:00 +8°C° 0.1 mm 1 mps 618 mmHg 91%
    23:00 +8°C° 0 mm 1 mps 618 mmHg 91%

    Tomorrow, 19 July, Friday

    Time Temperature Precipitation Wind Pressure Humidity
    00:00 +7°C° 0 mm 1 mps 617 mmHg 91%
    01:00 +6°C° 0 mm 0 mps 617 mmHg 91%
    02:00 +6°C° 0 mm 0 mps 617 mmHg 90%
    03:00 +6°C° 0 mm 0 mps 617 mmHg 90%
    04:00 +6°C° 0 mm 0 mps 618 mmHg 89%
    05:00 +8°C° 0 mm 0 mps 618 mmHg 85%
    06:00 +10°C° 0 mm 0 mps 619 mmHg 82%
    07:00 +11°C° 0 mm 0 mps 620 mmHg 78%
    08:00 +13°C° 0 mm 0 mps 621 mmHg 69%
    09:00 +16°C° 0 mm 1 mps 621 mmHg 60%
    10:00 +19°C° 0 mm 1 mps 622 mmHg 51%
    11:00 +20°C° 0 mm 1 mps 622 mmHg 48%
    12:00 +21°C° 0 mm 1 mps 622 mmHg 46%
    13:00 +21°C° 0 mm 1 mps 622 mmHg 43%
    14:00 +21°C° 0.2 mm 1 mps 622 mmHg 46%
    15:00 +21°C° 0.2 mm 1 mps 622 mmHg 48%
    16:00 +21°C° 0.2 mm 1 mps 622 mmHg 50%
    17:00 +19°C° 0.5 mm 1 mps 622 mmHg 62%
    18:00 +16°C° 0.5 mm 1 mps 621 mmHg 74%
    19:00 +14°C° 0.5 mm 0 mps 621 mmHg 87%
    20:00 +13°C° 0.1 mm 1 mps 620 mmHg 89%
    21:00 +11°C° 0.1 mm 1 mps 620 mmHg 91%
    22:00 +10°C° 0.1 mm 1 mps 620 mmHg 93%
    23:00 +10°C° 0 mm 1 mps 620 mmHg 93%

    Day after tomorrow, 20 July, Saturday

    Time Temperature Precipitation Wind Pressure Humidity
    00:00 +9°C° 0 mm 1 mps 619 mmHg 93%
    01:00 +9°C° 0 mm 1 mps 619 mmHg 94%
    02:00 +9°C° 0 mm 1 mps 619 mmHg 93%
    03:00 +9°C° 0 mm 1 mps 619 mmHg 93%
    04:00 +9°C° 0 mm 1 mps 619 mmHg 93%
    05:00 +10°C° 0 mm 1 mps 620 mmHg 91%
    06:00 +12°C° 0 mm 1 mps 621 mmHg 88%
    07:00 +14°C° 0 mm 1 mps 621 mmHg 86%
    08:00 +16°C° 0 mm 1 mps 622 mmHg 76%
    09:00 +19°C° 0 mm 1 mps 623 mmHg 67%
    10:00 +21°C° 0 mm 1 mps 624 mmHg 57%
    11:00 +22°C° 0.2 mm 1 mps 624 mmHg 54%
    12:00 +23°C° 0.2 mm 1 mps 624 mmHg 51%
    13:00 +23°C° 0.2 mm 1 mps 624 mmHg 49%
    14:00 +22°C° 0.7 mm 1 mps 624 mmHg 55%
    15:00 +21°C° 0.7 mm 1 mps 624 mmHg 61%
    16:00 +20°C° 0.7 mm 1 mps 623 mmHg 67%
    17:00 +19°C° 1.2 mm 1 mps 623 mmHg 74%
    18:00 +16°C° 1.2 mm 0 mps 623 mmHg 80%
    19:00 +15°C° 1.2 mm 0 mps 623 mmHg 86%
    20:00 +13°C° 0.1 mm 0 mps 622 mmHg 87%
    21:00 +13°C° 0.1 mm 1 mps 622 mmHg 87%
    22:00 +11°C° 0.1 mm 1 mps 622 mmHg 87%
    23:00 +11°C° 0 mm 1 mps 622 mmHg 87%

    21 July, Sunday

    Time Temperature Precipitation Wind Pressure Humidity
    00:00 +11°C° 0 mm 1 mps 622 mmHg 87%
    01:00 +11°C° 0 mm 1 mps 622 mmHg 87%
    02:00 +11°C° 0 mm 1 mps 622 mmHg 86%
    03:00 +11°C° 0 mm 1 mps 622 mmHg 86%
    04:00 +11°C° 0 mm 1 mps 622 mmHg 85%
    05:00 +12°C° 0 mm 1 mps 622 mmHg 81%
    06:00 +14°C° 0 mm 1 mps 623 mmHg 77%
    07:00 +15°C° 0 mm 0 mps 624 mmHg 73%
    08:00 +17°C° 0.1 mm 0 mps 625 mmHg 66%
    09:00 +21°C° 0.1 mm 1 mps 626 mmHg 58%
    10:00 +22°C° 0.1 mm 1 mps 627 mmHg 51%
    11:00 +23°C° 0.2 mm 1 mps 627 mmHg 49%
    12:00 +23°C° 0.2 mm 1 mps 627 mmHg 48%
    13:00 +24°C° 0.2 mm 2 mps 627 mmHg 47%
    14:00 +23°C° 0.8 mm 2 mps 627 mmHg 55%
    15:00 +20°C° 0.8 mm 2 mps 626 mmHg 64%
    16:00 +19°C° 0.8 mm 2 mps 626 mmHg 73%
    17:00 +18°C° 0.7 mm 2 mps 626 mmHg 78%
    18:00 +19°C° 0.7 mm 1 mps 626 mmHg 83%
    19:00 +18°C° 0.7 mm 1 mps 625 mmHg 88%
    20:00 +15°C° 0 mm 1 mps 625 mmHg 89%
    21:00 +13°C° 0 mm 1 mps 625 mmHg 90%
    22:00 +11°C° 0 mm 1 mps 624 mmHg 91%
    23:00 +11°C° 0 mm 1 mps 624 mmHg 90%

    22 July, Monday

    Time Temperature Precipitation Wind Pressure Humidity
    00:00 +11°C° 0 mm 1 mps 624 mmHg 89%
    01:00 +10°C° 0 mm 1 mps 624 mmHg 88%
    02:00 +10°C° 0 mm 1 mps 624 mmHg 86%
    03:00 +10°C° 0 mm 1 mps 623 mmHg 85%
    04:00 +10°C° 0 mm 1 mps 623 mmHg 83%
    05:00 +12°C° 0 mm 1 mps 624 mmHg 78%
    06:00 +13°C° 0 mm 0 mps 625 mmHg 72%
    07:00 +16°C° 0 mm 0 mps 626 mmHg 67%
    08:00 +20°C° 0 mm 1 mps 627 mmHg 60%
    09:00 +22°C° 0 mm 1 mps 628 mmHg 54%
    10:00 +24°C° 0 mm 1 mps 629 mmHg 47%
    11:00 +24°C° 0 mm 1 mps 629 mmHg 44%
    12:00 +25°C° 0 mm 1 mps 629 mmHg 42%
    13:00 +26°C° 0 mm 1 mps 629 mmHg 40%
    14:00 +25°C° 0.1 mm 2 mps 628 mmHg 44%
    15:00 +24°C° 0.1 mm 2 mps 628 mmHg 49%
    16:00 +24°C° 0.1 mm 2 mps 628 mmHg 53%
    17:00 +21°C° 0.3 mm 2 mps 627 mmHg 63%
    18:00 +20°C° 0.3 mm 2 mps 627 mmHg 73%
    19:00 +20°C° 0.3 mm 1 mps 626 mmHg 82%
    20:00 +18°C° 0 mm 1 mps 626 mmHg 85%
    21:00 +15°C° 0 mm 1 mps 625 mmHg 89%
    22:00 +13°C° 0 mm 1 mps 624 mmHg 92%
    23:00 +12°C° 0 mm 1 mps 624 mmHg 91%

    23 July, Tuesday

    Time Temperature Precipitation Wind Pressure Humidity
    00:00 +11°C° 0 mm 0 mps 624 mmHg 90%
    01:00 +11°C° 0 mm 0 mps 624 mmHg 89%
    02:00 +11°C° 0 mm 0 mps 623 mmHg 88%
    03:00 +10°C° 0 mm 0 mps 623 mmHg 88%
    04:00 +10°C° 0 mm 0 mps 623 mmHg 88%
    05:00 +12°C° 0 mm 0 mps 624 mmHg 83%
    06:00 +14°C° 0 mm 0 mps 624 mmHg 78%
    07:00 +16°C° 0 mm 0 mps 625 mmHg 72%
    08:00 +18°C° 0 mm 0 mps 626 mmHg 63%
    09:00 +23°C° 0 mm 1 mps 627 mmHg 53%
    10:00 +25°C° 0 mm 1 mps 627 mmHg 43%
    11:00 +25°C° 0 mm 1 mps 627 mmHg 40%
    12:00 +26°C° 0 mm 1 mps 627 mmHg 36%
    13:00 +27°C° 0 mm 2 mps 627 mmHg 33%
    14:00 +27°C° 0 mm 2 mps 627 mmHg 35%
    15:00 +27°C° 0 mm 2 mps 627 mmHg 36%
    16:00 +27°C° 0 mm 2 mps 626 mmHg 37%
    17:00 +25°C° 0 mm 2 mps 626 mmHg 49%
    18:00 +23°C° 0 mm 2 mps 625 mmHg 60%
    19:00 +21°C° 0 mm 1 mps 624 mmHg 71%
    20:00 +19°C° 0 mm 1 mps 624 mmHg 77%
    21:00 +16°C° 0 mm 1 mps 623 mmHg 82%
    22:00 +13°C° 0 mm 0 mps 622 mmHg 88%
    23:00 +12°C° 0 mm 0 mps 622 mmHg 87%
    Show more